Showing default

SOYUZ MS-27, 63520

Orbit data source: Space-Track

SOYUZ MS-27, 63520 is a payload satellite owned by RKKE (CIS) in LEO that was launched on Tue, 08 Apr 2025 UTC via a SOYUZ-2-1A launch vehicle from the Tyuratam Missile And Space Complex (TTMTR). Payload-class satellites include a variety of spacecraft equipped with specific instruments for various scientific and technological missions. These include communications satellites like Starlink; space stations such as the ISS; scientific satellites like the Hubble; Earth observation satellites from companies like Planet Labs, Umbra, and HawkEye 360; GPS; miniature CubeSats for education and research; and military/defense satellites.

Loading next visibility...
Identifier
63520, 2025-072A
Orbit
LEO
Last TLE update
1 day ago
Origin
Manufacturer
RKKE
Mission
Operational Civil Spaceship
Bus & Motor
7K-S A48, SA
Mass
7,152 kg wet, 2,900 kg dry
Launch date (UTC)
2025-04-08 (1 month ago)
Launch vehicle
SOYUZ-2-1A
Launch site
Tyuratam Missile And Space Complex (TTMTR)
Object type
Payload
Rocket body
Debris
Shape & HBR
Cyl + Cone + Sphere + 2 Pan, 10.6 m
Radar Cross Section
25.344 m², Large (>1 m²)

Expand to show TLE details & history

TLE from 1 day ago
0 SOYUZ MS-27
1 63520U 25072A   25128.54292963  .00008516  00000-0  16025-3 0  9997
2 63520  51.6344 143.4433 0002308  90.1375 269.9878 15.49412850  2483
Epoch: 2025-05-08T13:01Z
Definitive object data (Epoch: 2025-05-08T13:01:49.12Z)
Latitude
-0°
Longitude
81.37671°
Altitude
419.184 km
Speed
7.661 km/s
True Right ascension
09h 33m 46s
True Declination
0° 00' 00"
Sunlit
Object was in daylight at TLE epoch
Visualization TLE readout
Latitude
-30.85681°
Longitude
47.60733°
Altitude
428.798 km
Speed
7.654 km/s
Apparent Right ascension
09h 48m 03s
Apparent Declination
-43° 12' 54"
Sunlit
Object is in daylight
Visualization observer readout
Local Sidereal Time
00:53:37
Azimuth
111.008° ESE
Elevation
-55.578°
Doppler factor
1
Orbital elements
Apogee altitude
420.52 km
Perigee altitude
417.383 km
Semi-major axis
6,797.088 km
Eccentricity
0.0002308
Inclination
51.6344°
RAAN
143.4433°
Arg. of periapsis
90.1375°
True anomaly
269.96135°
Mean anomaly
269.9878°
Eccentric anomaly
269.97458°
Mean motion
3.8731 °/min
BSTAR
0.00016025
Orbital period
92.95 mins
Loading maneuver chart data...
Loading SW <> Apogee altitude chart data...
Loading historical data...
Loading historical data...
Loading historical data...
Loading historical data...
Loading historical data...
Loading historical data...
Loading historical data...
Other satellites on launch #72 in the year 2025 (2025-04-08 UTC)

SOYUZ MS-27 Visibility forecast

Observer location: undefined°, undefined°

Span
Click to sort rows by Start time (UTC) header in descending order
Start Az.
Max El. time (UTC)
Max El. Az.
Max El.
End time (UTC)
End Az.
4 mins2025-05-10 03:57:06.158Z258.137° W2025-05-10 03:59:06.158Z348.641° N37.771°2025-05-10 04:01:06.158Z39.835° NE
4 mins2025-05-10 08:50:06.158Z341.981° N2025-05-10 08:52:06.158Z36.666° NE23.095°2025-05-10 08:54:06.158Z79.492° E
4 mins2025-05-10 10:27:06.158Z279.912° WNW2025-05-10 10:29:06.158Z198.636° SSW32.416°2025-05-10 10:31:06.158Z155.221° SSE
|